Regional Weather Roundup
Issued by NWS Nashville, TN

Home | Current Version | Previous Version | Text Only | Print | Product List | Glossary On
Versions: 1 2 3 4 5 6 7 8 9 10 11 12 13 14 15 16 17 18 19 20 21 22 23 24 25 26 27 28 29 30 31 32 33 34 35 36 37 38 39 40 41 42 43 44 45 46 47 48 49 50
000
ASUS44 KOHX 242010
RWROHX
MIDDLE TENNESSEE HOURLY WEATHER ROUNDUP
NATIONAL WEATHER SERVICE NASHVILLE TN
300 PM CDT SUN JUL 24 2016

NOTE: "FAIR" INDICATES FEW OR NO CLOUDS BELOW 12,000 FEET WITH
NO SIGNIFICANT WEATHER AND/OR OBSTRUCTIONS TO VISIBILITY.

* THESE REPORTS ARE NOT UNDER NWS QUALITY CONTROL AND MAY NOT
  REPORT WEATHER SUCH AS PRECIPITATION AND FOG.


TNZ005>011-023>034-057-059-062>066-078-080-242100
...NORTHERN MIDDLE TENNESSEE...

CITY           SKY/WX    TMP DP  RH WIND       PRES   REMARKS
CLARKSVILLE    SUNNY     91  73  55 SW3       29.99F HX  99
CROSSVILLE     CLOUDY    85  70  60 W8        30.09F
NASHVILLE      CLOUDY    94  70  45 SW3       30.00F HX 100
SMYRNA         MOSUNNY   95  72  47 CALM      30.00F HX 103
SPARTA         SUNNY     93  77  59 NW3       30.03S HX 107
$$
TNZ056-058-060-061-075>077-079-093>097-242100
...SOUTHERN MIDDLE TENNESSEE...

CITY           SKY/WX    TMP DP  RH WIND       PRES   REMARKS
COLUMBIA       MOSUNNY   97  72  44 VRB3      29.97F HX 105
FAYETTEVILLE   MOSUNNY   90  73  58 SW16G22   30.02S HX  98
MCMINNVILLE    MOSUNNY   91  75  59 W8        30.03F HX 102
SHELBYVILLE    SUNNY     95  73  49 CALM      30.01F HX 105
TULLAHOMA      MOSUNNY   91  70  49 W7        30.04S HX  97
WINCHESTER     SUNNY     88  73  62 CALM      30.03F HX  96
$$


...KEY TO REMARKS...
VSB - VISIBILITY IN MILES
WCI - WIND CHILL INDEX
HX  - HEAT INDEX




USA.gov is the U.S. government's official web portal to all federal, state and local government web resources and services.